Saipan, MP

2:15 AM ChST on February 26, 2018 (GMT +1000)
Saipan International

Weather History for PGSN - February, 2013

Change the Weather History Date:

Tuesday, February 19, 2013

  Actual Average Record
Temperature  
Mean Temperature 78 °F -  
Max Temperature 82 °F 82 °F 87 °F (2018)
Min Temperature 75 °F 74 °F 72 °F (2015)
Cooling Degree Days 14    
Growing Degree Days 28 (Base 50)    
Moisture  
Dew Point 72 °F    
Average Humidity 80    
Maximum Humidity 90    
Minimum Humidity 70    
Precipitation  
Precipitation 0.00 in - - ()
Sea Level Pressure  
Sea Level Pressure 29.93 in    
Wind  
Wind Speed 19 mph (ENE)    
Max Wind Speed 24 mph    
Max Gust Speed 31 mph    
Visibility 10 miles    
Events Rain    
Averages and records for this station are not official NWS values.
T = Trace of Precipitation, MM = Missing Value Source: NWS Daily Summary

Daily Weather History Graph

Daily Weather History Graph

Search for Another Location

Airport or City:

Trip Planner

Search our weather history database for the weather conditions in past years. The results will help you decide how hot, cold, wet, or windy it might be!

Date:

Astronomy

Feb. 19, 2013 Rise Set
Actual Time 6:39 AM ChST 6:22 PM ChST
Civil Twilight 6:18 AM ChST 6:43 PM ChST
Nautical Twilight 5:52 AM ChST 7:09 PM ChST
Astronomical Twilight 5:27 AM ChST 7:34 PM ChST
Moon 12:49 PM ChST (2/19) 1:12 AM ChST (2/19)
Length of Visible Light 12h 25m
Length of Day
11h 42m
First Quarter, 61% of the Moon is Illuminated
Feb 19
First Quarter
Feb 26
Full
Mar 5
Last Quarter
Mar 12
New
Mar 20
First Quarter

Hourly Weather History & Observations

Time (ChST) Temp. Heat Index Dew Point Humidity Pressure Visibility Wind Dir Wind Speed Gust Speed Precip Events Conditions
12:37 AM 75.2 °F - 71.6 °F 89% 29.90 in 10.0 mi East 18.4 mph 26.5 mph N/A   Overcast
12:44 AM 75.2 °F - 71.6 °F 89% 29.90 in 10.0 mi East 18.4 mph 25.3 mph N/A   Overcast
12:54 AM 75.9 °F - 72.0 °F 87% 29.96 in 10.0 mi East 16.1 mph 24.2 mph N/A   Overcast
1:54 AM 75.9 °F - 71.1 °F 85% 29.94 in 10.0 mi East 17.3 mph 28.8 mph N/A   Scattered Clouds
2:54 AM 75.9 °F - 71.1 °F 85% 29.94 in 10.0 mi East 18.4 mph - N/A   Overcast
3:54 AM 75.9 °F - 69.1 °F 79% 29.93 in 10.0 mi East 17.3 mph 27.6 mph N/A   Scattered Clouds
4:54 AM 75.9 °F - 69.1 °F 79% 29.94 in 10.0 mi East 13.8 mph 24.2 mph N/A   Scattered Clouds
5:54 AM 75.9 °F - 70.0 °F 82% 29.95 in 10.0 mi ENE 17.3 mph 24.2 mph N/A   Scattered Clouds
6:29 AM 75.2 °F - 69.8 °F 83% 29.89 in 10.0 mi ENE 18.4 mph - N/A   Overcast
6:54 AM 75.9 °F - 70.0 °F 82% 29.96 in 10.0 mi ENE 16.1 mph - N/A   Overcast
7:08 AM 75.2 °F - 69.8 °F 83% 29.90 in 10.0 mi ENE 16.1 mph - N/A   Scattered Clouds
7:54 AM 77.0 °F - 72.0 °F 84% 29.98 in 10.0 mi ENE 20.7 mph 25.3 mph N/A   Scattered Clouds
8:01 AM 77.0 °F - 71.6 °F 83% 29.92 in 10.0 mi ENE 18.4 mph 25.3 mph N/A   Overcast
8:27 AM 78.8 °F - 71.6 °F 78% 29.93 in 10.0 mi East 20.7 mph 25.3 mph N/A   Partly Cloudy
8:54 AM 80.1 °F 83.6 °F 71.1 °F 74% 30.00 in 10.0 mi ENE 20.7 mph - N/A   Partly Cloudy
9:15 AM 80.6 °F 84.6 °F 71.6 °F 74% 29.93 in 10.0 mi ENE 20.7 mph - N/A   Overcast
9:26 AM 78.8 °F - 71.6 °F 78% 29.93 in 10.0 mi ENE 21.9 mph 28.8 mph N/A   Mostly Cloudy
9:54 AM 81.0 °F 85.2 °F 72.0 °F 74% 29.99 in 10.0 mi ENE 21.9 mph 28.8 mph N/A   Overcast
10:30 AM 80.6 °F 84.6 °F 71.6 °F 74% 29.92 in 10.0 mi ENE 21.9 mph 29.9 mph N/A   Overcast
10:54 AM 81.0 °F 85.2 °F 72.0 °F 74% 29.98 in 10.0 mi ENE 21.9 mph - N/A   Overcast
11:04 AM 80.6 °F 84.6 °F 71.6 °F 74% 29.91 in 10.0 mi ENE 21.9 mph 28.8 mph N/A   Overcast
11:30 AM 82.4 °F 87.2 °F 71.6 °F 70% 29.90 in 10.0 mi ENE 21.9 mph - N/A   Overcast
11:39 AM 82.4 °F 88.2 °F 73.4 °F 74% 29.90 in 10.0 mi ENE 19.6 mph - N/A   Overcast
11:54 AM 82.0 °F 86.7 °F 72.0 °F 71% 29.96 in 10.0 mi ENE 19.6 mph 27.6 mph N/A   Overcast
12:54 PM 81.0 °F 85.2 °F 72.0 °F 74% 29.94 in 10.0 mi ENE 23.0 mph 28.8 mph N/A   Overcast
1:03 PM 82.4 °F 88.2 °F 73.4 °F 74% 29.87 in 10.0 mi ENE 23.0 mph 28.8 mph N/A   Overcast
1:35 PM 82.4 °F 88.2 °F 73.4 °F 74% 29.86 in 10.0 mi East 18.4 mph 27.6 mph N/A   Overcast
1:54 PM 82.9 °F 88.8 °F 73.0 °F 72% 29.92 in 10.0 mi East 21.9 mph - N/A   Overcast
2:23 PM 82.4 °F 88.2 °F 73.4 °F 74% 29.84 in 10.0 mi ENE 23.0 mph 28.8 mph N/A   Overcast
2:54 PM 82.0 °F 87.4 °F 73.0 °F 74% 29.90 in 10.0 mi ENE 20.7 mph - N/A   Overcast
3:46 PM 80.6 °F 85.4 °F 73.4 °F 79% 29.83 in 10.0 mi ENE 24.2 mph 31.1 mph N/A   Overcast
3:54 PM 81.0 °F 85.8 °F 73.0 °F 77% 29.90 in 10.0 mi ENE 19.6 mph 29.9 mph N/A   Overcast
4:54 PM 79.0 °F - 72.0 °F 79% 29.91 in 9.0 mi East 17.3 mph 26.5 mph 0.00 in   Scattered Clouds
5:54 PM 78.1 °F - 72.0 °F 81% 29.92 in 10.0 mi East 19.6 mph 24.2 mph N/A   Scattered Clouds
6:54 PM 78.1 °F - 73.0 °F 84% 29.93 in 10.0 mi ENE 15.0 mph 23.0 mph N/A   Mostly Cloudy
7:54 PM 78.1 °F - 72.0 °F 81% 29.95 in 10.0 mi ENE 20.7 mph - N/A   Scattered Clouds
8:54 PM 77.0 °F - 73.0 °F 88% 29.96 in 10.0 mi East 13.8 mph - N/A   Scattered Clouds
9:54 PM 78.1 °F - 73.0 °F 84% 29.97 in 9.0 mi ENE 17.3 mph 23.0 mph N/A   Scattered Clouds
10:54 PM 77.0 °F - 73.0 °F 88% 29.96 in 10.0 mi East 16.1 mph - 0.00 in   Overcast
11:02 PM 77.0 °F - 73.4 °F 89% 29.90 in 10.0 mi East 15.0 mph - N/A   Overcast
11:13 PM 77.0 °F - 73.4 °F 89% 29.90 in 10.0 mi East 19.6 mph - N/A   Mostly Cloudy
11:54 PM 77.0 °F - 73.9 °F 90% 29.96 in 10.0 mi ENE 16.1 mph - 0.00 in Rain Light Rain